Location: Dal�� Lhota
(48.7500°N, 14.0167°E)
Time: 02:22:18
(UTC+00:00)

Cosmos 2082 Rocket - Pass Details

Date: 24 September 2020
Orbit: 834 x 853 km, 71.0° (Epoch: 29 October)

Event Time Altitude Azimuth Distance (km) Brightness Sun altitude
Rises 17:28:32 0° 335° (NNW) 3,393 5.8 -6.0°
Reaches altitude 10° 17:32:11 10° 359° (N) 2,457 4.7 -6.6°
Maximum altitude 17:35:17 15° 33° (NNE) 2,131 4.1 -7.1°
Drops below altitude 10° 17:38:23 10° 67° (ENE) 2,455 4.1 -7.7°
Enters shadow 17:39:28 - 76° (ENE) 2,687 4.2 -7.8°
